Погода в Ниагара-Фоллз

США     43°05′43″N   79°03′20″W
темп.,
°C
ветер,
м/с
пор.,
м/с
влажн.,
%
обл.,
%
осадки,
мм/ч
давл.,
гПа
погр.,
м
8 мая, сб
сб823:00+4зюз11905 0.0 101313
02:00+3з119311 0.0 101223
05:00+4сз1391100 0.0 1012138
08:00+5сз2479100 0.0 1013362
11:00+9зсз3554100 0.0 1014838
14:00+12зсз354739 0.1 10131595
17:00+12зюз565851 0.6 10141306
20:00+8зсз497841 1.6 1016483
9 мая, вс
вс923:00+6з388288 0.1 1018287
02:00+4з25861 0.1 1018137
05:00+3зюз238452 0.0 101888
08:00+5юз2367100 0.0 1018229
11:00+10юз2246100 0.0 1016991
14:00+13зюз1238100 0.0 10131802
17:00+10ссв1248100 0.0 1012844
20:00+9в3468100 0.0 1011554
10 мая, пн
пн1023:00+7всв1378100 0.1 1010197
02:00+6с267855 0.1 1010245
05:00+4ссз24755 0.0 1012135
08:00+6зсз35635 0.0 1014309
11:00+11зсз35485 0.0 10141377
14:00+10юз5660100 0.1 10151158
17:00+11юз475840 0.5 10151325
20:00+10зсз485338 0.6 10161153
11 мая, вт
вт1123:00+6зсз310631 0.0 1018469
02:00+4зсз397023 0.0 1018360
05:00+2з3107958 0.0 1019377
08:00+4зсз511695 0.0 1020670
11:00+8зсз7105553 0.0 10201630
14:00+11з7114196 0.1 10202482
17:00+10сз8115397 0.1 10201867
20:00+6зсз697879 0.2 1022881
12 мая, ср
ср1223:00+6зсз4118410 0.0 1023612
02:00+4з39895 0.0 1025329
05:00+3з25925 0.0 1026127
08:00+7зсз24780 0.0 1029289
11:00+13сз35510 0.0 1029741
14:00+16сз46381 0.0 10291810
17:00+16сз36361 0.0 10281740
20:00+11зюз23660 0.0 1029114